GW4745 Weather Reports


Display with metric or nautical units.
time (UTC)temp
F
wind
direction
speed
MPH
gust
MPH
rain 1hr
in
rain 24hr
in
rain mn
in
humidity
%
barometer
mb
20260505113116 51 0 0.0 3.0 0.00 0.00 0.00 80 1015.9
20260505111559 49 0 0.0 0.0 0.00 0.00 0.00 82 1015.8
20260505110133 49 0 0.0 0.0 0.00 0.00 0.00 83 1015.7
20260505101601 50 0 0.0 0.0 0.00 0.00 0.00 80 1015.7
20260505100100 50 0 0.0 0.0 0.00 0.00 0.00 79 1015.8
20260505094634 51 0 0.0 1.0 0.00 0.00 0.00 77 1015.9
20260505093100 53 0 0.0 0.0 0.00 0.00 0.00 73 1015.7
20260505091606 54 0 0.0 3.0 0.00 0.00 0.00 71 1015.5
20260505090106 54 0 0.0 2.0 0.00 0.00 0.00 69 1015.4
20260505084559 55 150 1.0 5.0 0.00 0.00 0.00 68 1015.1
20260505083105 56 150 2.0 5.0 0.00 0.00 0.00 66 1014.9
20260505081601 57 150 1.0 6.0 0.00 0.00 0.00 64 1014.8
20260505080059 57 150 4.0 7.0 0.00 0.00 0.00 63 1014.6
20260505074557 57 150 3.0 11.0 0.00 0.00 0.00 62 1014.4
20260505073104 57 150 5.0 9.0 0.00 0.00 0.00 62 1014.4
20260505071600 57 150 3.0 8.0 0.00 0.00 0.00 62 1014.5
20260505070101 57 150 5.0 8.0 0.00 0.00 0.00 62 1014.5
20260505064557 58 150 1.0 3.0 0.00 0.00 0.00 60 1014.3
20260505063058 59 150 2.0 4.0 0.00 0.00 0.00 59 1014.5
20260505061601 59 150 2.0 6.0 0.00 0.00 0.00 57 1014.4
20260505060105 60 150 2.0 8.0 0.00 0.00 0.00 56 1014.6
20260505054559 60 150 3.0 7.0 0.00 0.00 0.00 55 1014.5
20260505053059 61 150 2.0 10.0 0.00 0.00 0.00 55 1014.6
20260505051559 61 150 2.0 6.0 0.00 0.00 0.00 53 1014.6
20260505041559 63 150 3.0 7.0 0.00 0.00 0.00 50 1014.5
20260505040106 62 150 1.0 4.0 0.00 0.00 0.00 50 1014.5
20260505034559 62 0 1.0 3.0 0.00 0.00 0.00 51 1014.8
20260505033100 62 150 0.0 2.0 0.00 0.00 0.00 51 1014.9
20260505031601 63 150 1.0 4.0 0.00 0.00 0.00 49 1015.0
20260505024557 63 150 0.0 2.0 0.00 0.00 0.00 48 1015.0
20260505023100 64 0 0.0 3.0 0.00 0.00 0.00 47 1014.8
20260505021559 65 150 1.0 4.0 0.00 0.00 0.00 45 1014.9
20260505020105 65 150 1.0 4.0 0.00 0.00 0.00 45 1014.8
20260505014607 66 150 1.0 4.0 0.00 0.00 0.00 45 1014.6
20260505013059 66 150 2.0 5.0 0.00 0.00 0.00 44 1014.4
20260505011601 66 150 1.0 4.0 0.00 0.00 0.00 44 1014.3
20260505010100 67 150 2.0 5.0 0.00 0.00 0.00 43 1014.2
20260505004559 68 150 1.0 6.0 0.00 0.00 0.00 42 1014.0
20260505003057 69 150 2.0 6.0 0.00 0.00 0.00 42 1013.9
20260505001600 70 150 3.0 6.0 0.00 0.00 0.00 41 1013.8
20260505000059 71 150 3.0 8.0 0.00 0.00 0.00 39 1013.8
20260504234557 72 150 4.0 9.0 0.00 0.00 0.00 38 1013.6
20260504233058 73 150 7.0 14.0 0.00 0.00 0.00 36 1013.6
20260504231559 74 150 8.0 13.0 0.00 0.00 0.00 36 1013.4
20260504230058 75 150 5.0 13.0 0.00 0.00 0.00 37 1013.3
20260504224559 75 150 6.0 17.0 0.00 0.00 0.00 37 1013.3
20260504223102 76 150 7.0 11.0 0.00 0.00 0.00 36 1013.2
20260504221558 76 150 7.0 12.0 0.00 0.00 0.00 35 1013.2
20260504214605 76 150 5.0 16.0 0.00 0.00 0.00 35 1013.4
20260504213058 76 150 5.0 13.0 0.00 0.00 0.00 34 1013.4
20260504211602 76 150 8.0 21.0 0.00 0.00 0.00 35 1013.4
20260504210106 76 150 5.0 10.0 0.00 0.00 0.00 36 1013.5
20260504204623 77 150 6.0 12.0 0.00 0.00 0.00 37 1013.6
20260504203136 76 150 7.0 15.0 0.00 0.00 0.00 37 1013.6
20260504201559 76 150 4.0 10.0 0.00 0.00 0.00 37 1013.8
20260504200058 76 150 6.0 12.0 0.00 0.00 0.00 36 1013.9
20260504194559 76 150 4.0 12.0 0.00 0.00 0.00 37 1014.1
20260504193101 76 150 8.0 14.0 0.00 0.00 0.00 37 1014.3
20260504191604 75 150 3.0 10.0 0.00 0.00 0.00 39 1014.4
20260504190059 75 150 5.0 11.0 0.00 0.00 0.00 36 1014.6
20260504184602 74 150 3.0 14.0 0.00 0.00 0.00 38 1015.0
20260504183105 74 150 3.0 12.0 0.00 0.00 0.00 38 1015.0
20260504181606 73 150 4.0 9.0 0.00 0.00 0.00 39 1015.2
20260504180126 73 150 4.0 13.0 0.00 0.00 0.00 39 1015.4
20260504174558 73 150 1.0 6.0 0.00 0.00 0.00 40 1015.4
20260504173108 73 150 2.0 7.0 0.00 0.00 0.00 39 1015.5
20260504171612 71 150 4.0 8.0 0.00 0.00 0.00 41 1015.5
20260504160112 70 150 2.0 7.0 0.00 0.00 0.00 42 1016.6
20260504150104 66 150 4.0 8.0 0.00 0.00 0.00 44 1017.4